FENGYUN 1C DEB, 46992

Orbit data source: Space-Track

FENGYUN 1C DEB, 46992 is space debris in SSO originally from a launch on Mon, 10 May 1999 UTC launched from the Taiyaun Space Center, China (TSC). Fengyun 1C debris stems from the Chinese weather satellite Fengyun-1C, which was intentionally destroyed by a Chinese anti-satellite missile in 2007. This event dramatically increased the amount of space debris, with thousands of trackable fragments posing hazards to satellites and human spaceflight. The Fengyun 1C debris cloud has become a focal point in discussions about space sustainability and the need for international regulations to prevent the creation of new debris.

Loading next visibility...
Identifier
46992, 1999-025EZS
Orbit
SSO
Country
Flag of CNCN / PRC
Related business
Manufacturer
Unknown
Mission
Spacecraft
Bus & Motor
Unknown
Mass
Unknown
Launch date (UTC)
1999-05-10 (26 years ago)
Launch vehicle
Unknown
Launch site
Taiyaun Space Center, China (TSC)
Object type
Payload
Rocket body
Debris
Shape & HBR
Unknown
Radar Cross Section
Small (<0.1 m²)

Expand to show TLE details & history
Last TLE update: 4 days ago

TLE from 4 days ago
0 FENGYUN 1C DEB
1 46992U 99025EZS 25258.24945910  .00000570  00000-0  40303-3 0  9996
2 46992  98.8796 247.4184 0072644  46.3426 314.3731 14.00543521597184
Epoch: 2025-09-15T05:59Z
TLE epoch observation values (Epoch: 2025-09-15T05:59:13.266Z)
Latitude
-0°
Longitude
163.1563°
Altitude
858.053 km
Speed
7.442 km/s
True Right ascension
16h 29m 40s
True Declination
0° 00' 00"
Sunlit
Object was in daylight at epoch
Visualization orbit readout
Latitude
Unknown
Longitude
Unknown
Altitude
Unknown
Speed
Unknown
Apparent Right ascension
Unknown
Apparent Declination
Unknown
Sunlit
N/A
Visualization observer readout
Local Sidereal Time
15:49:36
Azimuth
Unknown
Elevation
Unknown
Doppler factor
Unknown
Orbital elements
Apogee altitude
941.898 km
Perigee altitude
836.314 km
Semi-major axis
7,267.243 km
Eccentricity
0.00726
Inclination
98.8796°
RAAN
247.4184°
Arg. of periapsis
46.3426°
True anomaly
313.77428°
Mean anomaly
314.3731°
Eccentric anomaly
314.07407°
Mean motion
3.50339 °/min
Orbital period
102.76 mins
BSTAR
0.00040303
Loading maneuver chart data...
Computing Atmospheric mass density...
Loading historical data...
Loading historical data...
Loading historical data...
Loading historical data...
Loading historical data...
Loading historical data...
Loading historical data...

Documentation

Showing up to 5 results
|